Weather History for Wheeler AAF, HI

Change the Weather History Date:

Friday, October 7, 2011

  Actual Average Record
Temperature  
Mean Temperature 74 °F -  
Max Temperature 80 °F 81 °F 91 °F (2002)
Min Temperature 68 °F 67 °F 64 °F (1996)
Cooling Degree Days 9    
Growing Degree Days 24 (Base 50)    
Moisture  
Dew Point 57 °F    
Average Humidity 60    
Maximum Humidity 100    
Minimum Humidity 10    
Precipitation  
Precipitation 0.01 in - - ()
Sea Level Pressure  
Sea Level Pressure 30.04 in    
Wind  
Wind Speed 3 mph (ENE)    
Max Wind Speed 16 mph    
Max Gust Speed -    
Visibility 10 miles    
Events Rain    
Averages and records for this station are not official NWS values.
T = Trace of Precipitation, MM = Missing Value Source: NWS Daily Summary

Daily Weather History Graph

Daily Weather History Graph

Search for Another Location

Airport:

Trip Planner

Search our weather history database for the weather conditions in past years. The results will help you decide how hot, cold, wet, or windy it might be!

Date:

Astronomy

Oct. 07, 2011 Rise Set
Actual Time 6:25 AM HST 6:14 PM HST
Civil Twilight 6:02 AM HST 6:36 PM HST
Nautical Twilight 5:37 AM HST 7:02 PM HST
Astronomical Twilight 5:11 AM HST 7:28 PM HST
Moon 3:40 PM HST (10/7) 2:51 AM HST (10/7)
Length of Visible Light 12h 33m
Length of Day
11h 49m
Waxing Gibbous, 85% of the Moon is Illuminated
Oct 7
Waxing Gibbous
Oct 11
Full
Oct 19
Last Quarter
Oct 26
New
Nov 2
First Quarter

Hourly Weather History & Observations

Time (HST) Temp. Heat Index Dew Point Humidity Pressure Visibility Wind Dir Wind Speed Gust Speed Precip Events Conditions
12:07 AM 69.8 °F - 69.8 °F 100% 30.03 in 10.0 mi Calm Calm - N/A   Light Drizzle
12:09 AM 69.8 °F - 69.8 °F 100% 30.04 in 10.0 mi Calm Calm - N/A   Light Drizzle
12:11 AM 69.8 °F - 69.8 °F 100% 30.04 in 10.0 mi NW 3.5 mph - N/A   Light Drizzle
12:17 AM 69.8 °F - 69.8 °F 100% 30.04 in 9.0 mi Calm Calm - N/A   Light Drizzle
12:22 AM 69.8 °F - 69.8 °F 100% 30.04 in 10.0 mi Calm Calm - N/A   Light Drizzle
12:23 AM 69.8 °F - 69.8 °F 100% 30.04 in 10.0 mi Calm Calm - N/A   Mostly Cloudy
12:31 AM 69.8 °F - 69.8 °F 100% 30.04 in 10.0 mi NNW 3.5 mph - N/A   Mostly Cloudy
12:55 AM 71.1 °F - 59.5 °F 67% 30.03 in 10.0 mi Calm Calm - 0.00 in   Mostly Cloudy
1:38 AM 69.8 °F - 64.4 °F 83% 30.03 in 10.0 mi WNW 5.8 mph - N/A   Drizzle
1:47 AM 69.8 °F - 59.0 °F 68% 30.03 in 10.0 mi NW 3.5 mph - N/A   Mostly Cloudy
1:55 AM 70.7 °F - 46.8 °F 42% 30.02 in 10.0 mi Calm Calm - 0.00 in   Mostly Cloudy
2:14 AM 71.6 °F - 23.0 °F 16% 30.01 in 10.0 mi North 4.6 mph - N/A   Light Drizzle
2:23 AM 71.6 °F - 46.4 °F 41% 30.02 in 10.0 mi Calm Calm - N/A   Mostly Cloudy
2:55 AM 68.7 °F - 67.5 °F 96% 30.01 in 10.0 mi Calm Calm - 0.00 in   Clear
3:55 AM 69.8 °F - - N/A% 30.01 in 10.0 mi NW 3.5 mph - N/A   Mostly Cloudy
3:59 AM 69.8 °F - - N/A% 30.01 in 10.0 mi NNW 4.6 mph - N/A Rain Light Rain
4:10 AM 69.8 °F - - N/A% 30.01 in 10.0 mi NW 3.5 mph - N/A   Overcast
4:55 AM 68.4 °F - 28.8 °F 23% 30.01 in 10.0 mi West 5.8 mph - 0.00 in   Scattered Clouds
5:30 AM 69.8 °F - - N/A% 30.01 in 10.0 mi NNW 4.6 mph - N/A   Light Drizzle
5:44 AM 69.8 °F - - N/A% 30.02 in 9.0 mi Calm Calm - N/A Rain Rain
5:45 AM 69.8 °F - - N/A% 30.02 in 8.0 mi Calm Calm - N/A Rain Light Rain
5:47 AM 69.8 °F - - N/A% 30.02 in 8.0 mi Calm Calm - N/A Rain Light Rain
5:55 AM 69.4 °F - - N/A% 30.03 in 7.0 mi Calm Calm - 0.00 in   Light Drizzle
6:00 AM 69.8 °F - - N/A% 30.02 in 9.0 mi Calm Calm - N/A   Overcast
6:09 AM 68.0 °F - 28.4 °F 23% 30.03 in 10.0 mi Calm Calm - N/A   Overcast
6:13 AM 68.0 °F - 28.4 °F 23% 30.03 in 10.0 mi Calm Calm - N/A   Drizzle
6:16 AM 69.8 °F - 28.4 °F 21% 30.03 in 10.0 mi Calm Calm - N/A   Light Drizzle
6:17 AM 69.8 °F - 28.4 °F 21% 30.03 in 10.0 mi Calm Calm - N/A   Light Drizzle
6:18 AM 69.8 °F - 28.4 °F 21% 30.03 in 9.0 mi Calm Calm - N/A   Light Drizzle
6:27 AM 69.8 °F - 28.4 °F 21% 30.03 in 9.0 mi Calm Calm - N/A   Overcast
6:41 AM 69.8 °F - - N/A% 30.04 in 10.0 mi Calm Calm - N/A   Mostly Cloudy
6:43 AM 69.8 °F - - N/A% 30.04 in 10.0 mi Calm Calm - N/A   Mostly Cloudy
6:46 AM 69.8 °F - - N/A% 30.04 in 10.0 mi Calm Calm - N/A   Mostly Cloudy
6:47 AM 69.8 °F - - N/A% 30.04 in 10.0 mi Calm Calm - N/A   Mostly Cloudy
6:55 AM 69.4 °F - - N/A% 30.04 in 10.0 mi East 4.6 mph - 0.01 in   Scattered Clouds
7:55 AM 73.4 °F - 12.0 °F 10% 30.05 in 10.0 mi Calm Calm - N/A   Clear
8:55 AM 73.6 °F - 41.2 °F 31% 30.07 in 10.0 mi SSE 5.8 mph - N/A   Mostly Cloudy
9:41 AM 75.2 °F - 55.4 °F 50% 30.08 in 10.0 mi ESE 5.8 mph - N/A   Overcast
9:42 AM 75.2 °F - 57.2 °F 53% 30.08 in 10.0 mi Variable 5.8 mph - N/A   Overcast
9:43 AM 77.0 °F - 57.2 °F 50% 30.08 in 10.0 mi East 6.9 mph - N/A   Overcast
9:51 AM 77.0 °F - 57.2 °F 50% 30.07 in 10.0 mi Variable 6.9 mph - N/A   Overcast
9:52 AM 77.0 °F - 57.2 °F 50% 30.07 in 10.0 mi Variable 6.9 mph - N/A   Overcast
9:53 AM 78.8 °F - 57.2 °F 47% 30.07 in 10.0 mi East 8.1 mph - N/A   Overcast
9:54 AM 78.8 °F - 57.2 °F 47% 30.08 in 10.0 mi ESE 9.2 mph - N/A   Overcast
9:55 AM 78.3 °F - 57.2 °F 48% 30.08 in 10.0 mi East 6.9 mph - N/A   Overcast
10:05 AM 78.8 °F - 57.2 °F 47% 30.07 in 10.0 mi ESE 9.2 mph - N/A   Overcast
10:25 AM 77.0 °F - 59.0 °F 54% 30.07 in 10.0 mi Variable 6.9 mph - N/A   Overcast
10:45 AM 77.0 °F - 60.8 °F 57% 30.07 in 10.0 mi ENE 10.4 mph - N/A Rain Light Rain
10:54 AM 77.0 °F - 60.8 °F 57% 30.07 in 10.0 mi East 15.0 mph - N/A   Mostly Cloudy
10:55 AM 77.5 °F - 60.3 °F 55% 30.06 in 10.0 mi East 16.1 mph - 0.00 in   Mostly Cloudy
11:03 AM 77.0 °F - 59.0 °F 54% 30.07 in 10.0 mi East 9.2 mph - N/A   Mostly Cloudy
11:55 AM 80.1 °F 80.7 °F 58.5 °F 48% 30.06 in 10.0 mi ENE 10.4 mph - N/A   Mostly Cloudy
12:55 PM 80.1 °F 81.0 °F 60.6 °F 51% 30.04 in 10.0 mi NE 10.4 mph - N/A   Mostly Cloudy
12:59 PM 80.6 °F 81.5 °F 60.8 °F 51% 30.03 in 10.0 mi ENE 12.7 mph - N/A   Mostly Cloudy
1:03 PM 80.6 °F 81.1 °F 59.0 °F 48% 30.03 in 10.0 mi ENE 13.8 mph - N/A   Mostly Cloudy
1:55 PM 79.3 °F - 62.8 °F 57% 30.02 in 10.0 mi NE 11.5 mph - N/A   Mostly Cloudy
2:12 PM 78.8 °F - 62.6 °F 57% 30.01 in 10.0 mi NE 10.4 mph - N/A   Mostly Cloudy
2:20 PM 78.8 °F - 64.4 °F 61% 30.01 in 10.0 mi NE 11.5 mph - N/A   Mostly Cloudy
2:55 PM 78.8 °F - 64.4 °F 61% 30.01 in 10.0 mi ENE 8.1 mph - N/A   Scattered Clouds
3:05 PM 77.0 °F - 66.2 °F 69% 30.01 in 10.0 mi ENE 11.5 mph - N/A   Light Drizzle
3:14 PM 77.0 °F - 66.2 °F 69% 30.01 in 10.0 mi ENE 10.4 mph - N/A   Mostly Cloudy
3:55 PM 76.5 °F - 65.1 °F 68% 30.01 in 10.0 mi ENE 6.9 mph - 0.00 in   Mostly Cloudy
4:48 PM 75.2 °F - 66.2 °F 73% 30.01 in 10.0 mi North 3.5 mph - N/A   Overcast
4:55 PM 75.9 °F - 65.5 °F 70% 30.01 in 10.0 mi Calm Calm - N/A   Overcast
5:18 PM 77.0 °F - 62.6 °F 61% 30.01 in 10.0 mi ENE 6.9 mph - N/A   Overcast
5:55 PM 76.3 °F - 63.9 °F 65% 30.01 in 10.0 mi East 12.7 mph - N/A   Partly Cloudy
6:55 PM 75.6 °F - 64.9 °F 69% 30.04 in 10.0 mi East 4.6 mph - N/A   Scattered Clouds
7:55 PM 75.2 °F - 64.8 °F 70% 30.06 in 10.0 mi Variable 5.8 mph - N/A   Mostly Cloudy
8:12 PM 75.2 °F - 64.4 °F 69% 30.06 in 10.0 mi East 6.9 mph - N/A   Overcast
8:30 PM 75.2 °F - 66.2 °F 73% 30.06 in 10.0 mi ENE 4.6 mph - N/A   Light Drizzle
8:40 PM 75.2 °F - 66.2 °F 73% 30.06 in 10.0 mi ENE 4.6 mph - N/A   Overcast
8:55 PM 74.3 °F - 64.8 °F 72% 30.06 in 10.0 mi East 3.5 mph - 0.00 in   Overcast
8:59 PM 73.4 °F - 64.4 °F 73% 30.07 in 10.0 mi ENE 5.8 mph - N/A   Overcast
9:36 PM 75.2 °F - 64.4 °F 69% 30.07 in 10.0 mi ENE 5.8 mph - N/A   Overcast
9:39 PM 75.2 °F - 64.4 °F 69% 30.07 in 10.0 mi ENE 6.9 mph - N/A   Light Drizzle
9:41 PM 75.2 °F - 64.4 °F 69% 30.07 in 10.0 mi ENE 6.9 mph - N/A   Light Drizzle
9:51 PM 73.4 °F - 64.4 °F 73% 30.07 in 10.0 mi ENE 8.1 mph - N/A   Mostly Cloudy
9:55 PM 74.1 °F - 64.6 °F 72% 30.06 in 10.0 mi East 9.2 mph - 0.00 in   Mostly Cloudy
10:55 PM 74.3 °F - 64.4 °F 71% 30.06 in 10.0 mi East 4.6 mph - N/A   Mostly Cloudy
11:55 PM 73.8 °F - 63.7 °F 71% 30.05 in 10.0 mi ESE 3.5 mph - N/A   Scattered Clouds